sat.trackr.live / text

‹ back to catalog

STARLINK-31701

NORAD 59582 · 2024-076U

PAYLOAD ACTIVE UNKNOWN

§ Identity

Operator
Country
US
Launch date
2024-04-23
Launch site
AFETR
Launch vehicle
Mass (kg)
RCS (m²)

Purposes: comms

External: N2YO · Heavens-Above · Gunter

§ Orbital elements

Epoch: 2026-05-25T03:14:27.931200Z

Period
94.26 min
Inclination
43.0003°
Eccentricity
0.0001044
Mean motion
15.27695844 rev/d
Perigee alt
482.0 km
Apogee alt
483.4 km
Semi-major
6,860.8 km
B*
1.7793e-3
RAAN
297.2996°
Arg perigee
91.3907°
Mean anomaly
268.7064°
Rev number
11,810

§ Raw data

STARLINK-317011 59582U 24076U   26145.13504550  .00049201  00000+0  17793-2 0  99932 59582  43.0003 297.2996 0001044  91.3907 268.7064 15.27695844118108

JSON: /api/v1/satellites/59582 · /tle

For live sub-satellite position, see the globe view (requires WebGL).

§ Visibility from observer

Set your observer location to see the next 7 days of passes ≥ 10°. The values pass through the URL so the page stays shareable.

No JS? Fill the form by hand. The geolocation button needs JavaScript.